Total_Precipitation_Accumulation
0.11 0.12 0.14 0.18 0.20 0.22 0.27 0.33 0.39 0.55 0.69 0.79 0.91 1.10 1.28 1.45 1.61 1.73 1.62 1.47 1.43 1.59 1.69 1.60 1.66 1.67 1.52 1.50 1.55 1.58 1.50 1.22 1.04 1.05 0.87 0.61 0.42 0.42 0.41 0.39 0.35 0.34 0.34
0.07 0.06 0.06 0.09 0.10 0.12 0.17 0.23 0.30 0.41 0.55 0.70 0.93 1.15 1.45 1.54 1.63 1.77 1.81 1.74 1.67 1.80 1.82 1.88 1.92 1.94 1.92 1.86 1.73 1.77 1.83 1.58 1.32 1.36 1.54 1.14 0.77 0.46 0.37 0.40 0.36 0.35 0.38
0.06 0.04 0.04 0.05 0.07 0.08 0.10 0.17 0.28 0.44 0.65 0.88 1.18 1.48 1.72 1.80 1.84 1.79 1.85 1.93 1.97 2.03 2.04 2.08 2.12 2.09 1.93 1.91 1.98 2.05 2.34 2.11 1.72 1.54 1.72 1.44 1.13 0.83 0.48 0.43 0.47 0.45 0.44
0.08 0.06 0.06 0.07 0.08 0.11 0.15 0.24 0.40 0.61 0.89 1.23 1.57 1.81 2.03 2.12 1.95 1.93 1.97 1.97 1.92 1.94 2.04 2.05 2.04 2.00 1.92 1.97 2.02 2.03 2.33 2.47 2.14 1.83 1.52 1.25 1.15 1.14 0.84 0.57 0.52 0.55 0.47
0.14 0.12 0.14 0.15 0.19 0.24 0.32 0.47 0.71 1.00 1.28 1.50 1.69 1.90 2.03 2.04 2.01 1.97 1.97 1.90 1.86 1.82 1.84 1.84 1.91 1.94 1.98 2.02 2.14 2.20 2.40 2.40 2.35 2.13 1.97 1.77 1.44 1.08 1.03 0.95 0.72 0.65 0.53
0.19 0.21 0.23 0.29 0.36 0.40 0.54 0.72 0.90 1.18 1.35 1.47 1.59 1.79 1.93 1.97 1.98 1.96 1.97 1.96 1.92 1.80 1.72 1.71 1.75 1.86 2.01 2.05 2.09 2.17 2.38 2.48 2.54 2.40 2.16 2.05 1.86 1.56 1.38 1.11 0.96 0.89 0.71
0.27 0.28 0.38 0.52 0.60 0.64 0.72 0.86 0.95 1.12 1.22 1.27 1.36 1.51 1.58 1.65 1.71 1.69 1.65 1.59 1.53 1.51 1.52 1.60 1.68 1.79 1.91 1.97 2.05 2.18 2.19 2.28 2.53 2.53 2.33 2.11 1.90 1.83 1.67 1.48 1.19 1.03 0.80
0.42 0.54 0.67 0.77 0.84 0.85 0.81 0.83 0.95 1.00 0.98 1.01 1.02 1.14 1.23 1.30 1.37 1.38 1.36 1.39 1.40 1.40 1.33 1.37 1.46 1.66 1.85 1.93 2.00 2.00 1.98 2.01 2.18 2.21 2.24 2.20 1.95 1.86 1.69 1.58 1.61 1.37 1.12
0.66 0.89 1.07 1.18 1.26 1.17 0.98 0.84 0.84 0.83 0.80 0.86 0.90 0.95 1.05 1.09 1.12 1.15 1.11 1.20 1.23 1.21 1.15 1.16 1.19 1.28 1.51 1.75 1.91 1.84 1.75 1.73 1.84 1.91 2.00 2.12 2.14 2.04 1.89 1.82 1.76 1.66 1.39
1.09 1.34 1.59 1.70 1.68 1.49 1.22 0.94 0.79 0.74 0.70 0.73 0.78 0.85 0.89 0.90 0.89 0.92 0.88 0.94 1.03 1.02 1.02 0.99 1.02 1.13 1.24 1.44 1.66 1.74 1.69 1.65 1.67 1.77 1.91 2.02 2.12 2.17 1.97 1.89 1.81 1.65 1.48
1.52 1.66 1.81 1.86 1.60 1.42 1.17 0.92 0.77 0.79 0.78 0.78 0.78 0.78 0.76 0.74 0.74 0.74 0.71 0.72 0.77 0.77 0.80 0.95 1.00 1.06 1.13 1.29 1.54 1.70 1.72 1.64 1.61 1.60 1.65 1.77 1.87 2.11 2.08 1.98 1.85 1.69 1.51
1.27 1.35 1.41 1.36 1.32 1.27 1.10 0.94 0.85 0.85 0.88 0.88 0.86 0.78 0.70 0.67 0.67 0.64 0.57 0.57 0.53 0.53 0.64 0.76 0.81 0.85 0.88 1.04 1.32 1.51 1.54 1.48 1.40 1.37 1.43 1.62 1.80 2.02 2.13 2.09 1.96 1.83 1.70
1.10 1.10 1.10 1.11 1.14 1.11 0.99 0.97 0.94 0.94 0.94 0.92 0.82 0.74 0.68 0.59 0.55 0.49 0.45 0.50 0.51 0.56 0.65 0.74 0.79 0.82 0.86 0.87 0.96 1.08 1.20 1.21 1.17 1.16 1.17 1.21 1.37 1.64 1.84 1.91 1.93 1.96 1.92
0.86 0.87 0.91 0.94 1.03 1.00 0.96 0.91 0.87 0.92 1.01 1.06 0.96 0.85 0.73 0.62 0.56 0.49 0.45 0.43 0.45 0.51 0.56 0.60 0.68 0.78 0.81 0.80 0.80 0.81 0.87 0.88 0.92 0.96 1.00 1.03 1.06 1.22 1.40 1.54 1.74 1.95 1.94
0.55 0.60 0.64 0.64 0.62 0.59 0.61 0.63 0.69 0.80 0.94 1.08 1.07 0.93 0.74 0.61 0.54 0.50 0.43 0.40 0.41 0.42 0.47 0.52 0.55 0.62 0.69 0.74 0.75 0.65 0.62 0.68 0.74 0.78 0.79 0.81 0.89 1.00 1.08 1.15 1.45 1.75 1.87
0.33 0.31 0.32 0.33 0.34 0.31 0.28 0.27 0.33 0.48 0.73 0.99 0.97 0.75 0.58 0.46 0.41 0.41 0.39 0.35 0.34 0.39 0.44 0.44 0.46 0.56 0.57 0.68 0.65 0.51 0.50 0.53 0.63 0.72 0.70 0.64 0.64 0.70 0.76 0.83 0.98 1.21 1.41
0.20 0.20 0.20 0.20 0.20 0.19 0.18 0.19 0.26 0.38 0.54 0.64 0.60 0.51 0.40 0.38 0.41 0.43 0.37 0.34 0.34 0.35 0.38 0.39 0.40 0.45 0.57 0.58 0.42 0.39 0.43 0.51 0.57 0.65 0.70 0.63 0.54 0.60 0.63 0.72 0.80 0.80 0.86
0.11 0.11 0.12 0.13 0.15 0.16 0.19 0.22 0.27 0.34 0.38 0.40 0.40 0.34 0.30 0.31 0.34 0.35 0.34 0.40 0.44 0.42 0.42 0.44 0.44 0.44 0.49 0.46 0.33 0.34 0.38 0.45 0.52 0.61 0.70 0.75 0.67 0.66 0.75 0.74 0.76 0.71 0.68
0.04 0.03 0.03 0.03 0.05 0.05 0.06 0.08 0.10 0.12 0.12 0.12 0.13 0.12 0.12 0.13 0.14 0.16 0.22 0.33 0.40 0.42 0.44 0.48 0.48 0.43 0.40 0.39 0.30 0.29 0.38 0.46 0.53 0.56 0.62 0.69 0.66 0.77 0.85 0.82 0.91 0.89 0.79
0.01 0.00 0.00 0.00 0.00 0.00 0.00 0.00 0.00 0.01 0.01 0.01 0.01 0.01 0.02 0.02 0.04 0.06 0.09 0.15 0.19 0.24 0.32 0.34 0.38 0.41 0.38 0.46 0.33 0.32 0.38 0.49 0.60 0.63 0.62 0.76 0.75 0.78 0.76 0.73 0.92 0.95 0.85
0.00 0.00 0.00 0.00 0.00 0.00 0.00 0.00 0.00 0.00 0.00 0.00 0.00 0.00 0.00 0.00 0.01 0.02 0.03 0.06 0.08 0.12 0.17 0.21 0.27 0.34 0.39 0.46 0.43 0.46 0.48 0.54 0.68 0.70 0.63 0.57 0.66 0.56 0.60 0.63 0.67 0.87 0.87
0.00 0.00 0.00 0.00 0.00 0.00 0.00 0.00 0.00 0.00 0.00 0.00 0.00 0.00 0.00 0.00 0.01 0.01 0.02 0.02 0.03 0.06 0.09 0.11 0.15 0.22 0.27 0.33 0.38 0.38 0.41 0.47 0.60 0.68 0.57 0.54 0.61 0.47 0.45 0.47 0.57 0.69 0.78
0.00 0.00 0.00 0.00 0.00 0.00 0.00 0.00 0.00 0.00 0.00 0.00 0.00 0.00 0.00 0.01 0.01 0.01 0.01 0.02 0.03 0.05 0.06 0.09 0.15 0.21 0.28 0.29 0.25 0.22 0.24 0.29 0.43 0.49 0.50 0.50 0.47 0.43 0.40 0.41 0.47 0.53 0.62
0.00 0.00 0.00 0.00 0.00 0.00 0.00 0.00 0.00 0.00 0.00 0.00 0.00 0.00 0.01 0.01 0.01 0.02 0.03 0.03 0.04 0.05 0.09 0.13 0.18 0.23 0.26 0.28 0.25 0.26 0.28 0.27 0.32 0.34 0.34 0.37 0.39 0.43 0.42 0.39 0.42 0.49 0.58
0.00 0.00 0.00 0.00 0.00 0.00 0.00 0.00 0.00 0.00 0.00 0.00 0.00 0.00 0.00 0.01 0.01 0.01 0.01 0.02 0.03 0.04 0.10 0.17 0.21 0.21 0.21 0.15 0.14 0.24 0.34 0.40 0.46 0.53 0.48 0.50 0.50 0.47 0.42 0.39 0.40 0.43 0.47
0.00 0.00 0.00 0.00 0.00 0.00 0.00 0.00 0.00 0.00 0.00 0.00 0.00 0.00 0.00 0.01 0.01 0.01 0.01 0.01 0.02 0.05 0.07 0.07 0.09 0.10 0.09 0.09 0.10 0.16 0.26 0.34 0.45 0.60 0.65 0.69 0.70 0.63 0.53 0.43 0.36 0.32 0.33